sat.trackr.live / text

‹ back to catalog

STARLINK-37511

NORAD 69512 · 2026-133E

PAYLOAD ACTIVE UNKNOWN

§ Identity

Operator
Country
US
Launch date
2026-06-12
Launch site
AFETR
Launch vehicle
Mass (kg)
RCS (m²)

Purposes: comms

External: N2YO · Heavens-Above · Gunter

§ Orbital elements

Epoch: 2026-09-19T22:17:44.983104Z

Period
93.85 min
Inclination
53.1568°
Eccentricity
0.0002462
Mean motion
15.34399289 rev/d
Perigee alt
461.0 km
Apogee alt
464.4 km
Semi-major
6,840.8 km
B*
6.7443e-4
RAAN
232.5778°
Arg perigee
60.0786°
Mean anomaly
300.0461°
Rev number
1,541

§ Raw data

STARLINK-375111 69512U 26133E   26262.92899286  .00022479  00000+0  67443-3 0  99992 69512  53.1568 232.5778 0002462  60.0786 300.0461 15.34399289 15416

JSON: /api/v1/satellites/69512 · /tle

For live sub-satellite position, see the globe view (requires WebGL).

§ Visibility from observer

Set your observer location to see the next 7 days of passes ≥ 10°. The values pass through the URL so the page stays shareable.

No JS? Fill the form by hand. The geolocation button needs JavaScript.